User: anonymous   Login
Location: Caltech
(34.1382°N, 118.1253°W)
Time: 22:19:52
(UTC-07:00)
Language:

GPS 2-04 Rocket1 - Orbit

View from above orbital plane
View from above orbital plane
View from above satellite
View from above satellite

Ground track
Ground track

The orbit data is extracted from the following two-line orbital elements,

1 20303U 89085B   17115.87046326 +.00005665 +00000-0 +20138-3 0  9998
2 20303 035.6306 006.2343 0106313 069.0921 292.1148 15.23238819493108
Epoch (UTC): 25 April 2017 20:53:28
Eccentricity: 0.0106313
inclination: 35.6306°
perigee height: 423 km
apogee height: 569 km
right ascension of ascending node: 6.2343°
argument of perigee: 69.0921°
revolutions per day: 15.23238819
mean anomaly at epoch: 292.1148°
orbit number at epoch: 49310

The dashed part of the orbit path shows where the satellite is in the earth's shadow,  

DLR